Content
SEND FEEDBACK

Daily
Averages
Monthly
Summary
United States of America

AGAT, GUAM


Home > North America > United States > Guam
Elevation: 110 meters     Latitude: 13 33N     Longitude: 144 50E

WEATHER
 
SELECT A DAY
Number of Records: 214,775;   Date Range: 1/1/95 - 11/21/14
 
SHARE

PRINT THIS DATA

[ ← Previous Day ]
WEATHER ALMANAC - 23 MARCH, 2013
[ Next Day → ]
[ °F ]   °C
Weather ElementAverageHighLow
Temperature28.9 °C32 °C (11:37 am)25.6 °C (11:54 pm)
Dewpoint22.6 °C24 °C (11:41 pm)20.6 °C (1:54 pm)
Humidity69.4 %87 % (11:54 pm)52 % (1:54 pm)
Barometer1011.9 hPa1013.9 hPa (11:41 pm)1009.5 hPa (2:54 pm)
Wind Speed16.9 km/h24.1 km/h (8:54 am)
Wind Gust31.5 km/h (11:16 am)
Weather ElementAverage
Visibility15.3 km
Wind DirectionENE (66 °)

Weather ElementTotal
Precipitation3.05 mm
Cooling Degree Days10.5 (Base 18.3)
Growing Degree Days18.8 (Base 10)
Averaged from 30 records on 23 March, 2013
WEATHER CONDITIONS BREAKOUT
WIND DIRECTION BREAKOUT
WEATHER BY HOUR - 23 MARCH, 2013
[ °F ]   °C
Local TimeTemperatureDewpointHumidityBarometerVisibilityWind DirectionWind SpeedGust SpeedPrecipitationEventsConditions
1:54 AM26.1 °C23.3 °C84 %1011.9 hPa16.1 kmNE (50°)11.1 km/hPartly Cloudy
2:54 AM26.1 °C22.8 °C82 %1011.5 hPa16.1 kmNE (50°)11.1 km/hClear
3:54 AM26.1 °C22.8 °C82 %1011.2 hPa16.1 kmENE (60°)11.1 km/hClear
4:54 AM26.1 °C23.3 °C84 %1011.2 hPa16.1 kmENE (60°)13 km/h0 mmClear
5:54 AM26.7 °C22.8 °C79 %1011.5 hPa16.1 kmENE (60°)16.7 km/hClear
6:54 AM26.7 °C22.8 °C79 %1012.2 hPa16.1 kmENE (70°)14.8 km/hClear
7:54 AM28.3 °C22.8 °C72 %1012.9 hPa16.1 kmENE (60°)16.7 km/hClear
8:54 AM28.9 °C22.8 °C69 %1013.2 hPa16.1 kmENE (70°)24.1 km/hClear
9:54 AM29.4 °C22.2 °C65 %1013.2 hPa16.1 kmNE (50°)22.2 km/hScattered Clouds
10:54 AM30 °C21.7 °C61 %1012.5 hPa16.1 kmENE (70°)20.4 km/hMostly Cloudy
11:16 AM31 °C22 °C58 %1012.9 hPa16.1 kmENE (60°)18.5 km/h31.5 km/hMostly Cloudy
11:37 AM32 °C22 °C55 %1012.9 hPa16.1 kmENE (60°)20.4 km/hScattered Clouds
11:44 AM32 °C22 °C55 %1012.5 hPa16.1 kmNE (50°)18.5 km/hMostly Cloudy
11:54 AM30.6 °C22.2 °C61 %1011.9 hPa16.1 kmENE (60°)22.2 km/hMostly Cloudy
12:03 PM31 °C22 °C58 %1012.2 hPa16.1 kmENE (60°)22.2 km/hMostly Cloudy
12:13 PM32 °C22 °C55 %1012.2 hPa16.1 kmEast (80°)22.2 km/hMostly Cloudy
12:54 PM31.7 °C21.7 °C55 %1010.8 hPa16.1 kmEast (80°)20.4 km/hScattered Clouds
1:54 PM31.7 °C20.6 °C52 %1010.2 hPa16.1 kmEast (80°)20.4 km/hClear
2:54 PM31.7 °C21.1 °C53 %1009.5 hPa16.1 kmENE (70°)18.5 km/h29.6 km/hClear
3:54 PM31.1 °C21.7 °C57 %1009.5 hPa16.1 kmEast (100°)18.5 km/hPartly Cloudy
4:54 PM30.6 °C22.2 °C61 %1009.8 hPa16.1 kmENE (60°)24.1 km/hPartly Cloudy
5:54 PM29.4 °C22.8 °C67 %1010.2 hPa16.1 kmNE (50°)16.7 km/hPartly Cloudy
6:54 PM28.3 °C22.8 °C72 %1010.8 hPa16.1 kmENE (60°)14.8 km/hScattered Clouds
7:54 PM27.8 °C22.8 °C74 %1011.9 hPa16.1 kmEast (80°)13 km/hPartly Cloudy
8:54 PM27.8 °C23.3 °C76 %1012.5 hPa16.1 kmENE (60°)11.1 km/hPartly Cloudy
9:54 PM27.8 °C23.9 °C79 %1012.9 hPa16.1 kmENE (60°)7.4 km/hScattered Clouds
10:54 PM27.2 °C23.9 °C82 %1013.2 hPa16.1 kmNE (50°)9.3 km/hScattered Clouds
11:41 PM27 °C24 °C84 %1013.9 hPa11.3 kmEast (90°)14.8 km/h0 mmRainLight Rain
11:47 PM27 °C24 °C84 %1013.9 hPa4 kmEast (90°)18.5 km/h29.6 km/h1.02 mmRainHeavy Rain
11:54 PM25.6 °C23.3 °C87 %1012.9 hPa8 kmEast (80°)13 km/h29.6 km/h2.03 mmRainLight Rain
Hourly data recorded from PGUM, located 0 kilometers away from Agat, Guam







STORIES FROM OUR PARTNERS